Welcome to the New NWS' Forecast!
Most changes are behind the scenes, but click here for differences you might notice.
Latest weather observations around

West Memphis, West Memphis Municipal Airport (KAWM)

Using English Units (Switch to International System of Units)
Date/ Time (CDT) Wind (mph) Vis. (mi) Weather Sky Cond. Temp (°F) Rel. Humidity Wind Chill (°F) Heat Index (°F) Pressure Precip. (in)
Air Dwpt 6 hour Altimeter (inHg) Sea level (inHg) 1 hr 3 hr 6 hr
Max Min
Oct 20 08:53 SE 6 9 Clear CLR 59 56     90%     30.23 30.23      
Oct 20 07:53 SE 3 8 Clear CLR 51 51     100%     30.23 30.22      
Oct 20 07:45 Calm 2.5 Fog/Mist CLR 48 48     100%     30.22        
Oct 20 07:40 Calm 0.75 Fog/Mist CLR 49 49     100%     30.22        
Oct 20 07:30 Calm 0.25 Fog CLR 49 49     100%     30.22        
Oct 20 07:22 Calm 0.5 Fog CLR 50 50     100%     30.21        
Oct 20 07:19 Calm 1.5 Fog/Mist CLR 50 50     100%     30.21        
Oct 20 07:03 Calm 3 Fog/Mist CLR 48 48     100%     30.21        
Oct 20 06:58 Calm 1 Fog/Mist CLR 48 48     100%     30.21        
Oct 20 06:53 Calm 0.5 Fog CLR 49 49     100%     30.21 30.21      
Oct 20 06:39 Calm 0.5 Fog CLR 49 49     100%     30.21        
Oct 20 06:34 Calm 1.75 Fog/Mist CLR 51 51     100%     30.21        
Oct 20 05:53 SSE 3 10 Clear CLR 53 53     100%     30.21 30.2      
Oct 20 04:53 Calm 10 Clear CLR 51 50     96%     30.2 30.19      
Oct 20 03:53 Calm 10 Clear CLR 51 51     100%     30.2 30.19      
Oct 20 02:53 SSE 3 10 Clear CLR 51 51     100%     30.2 30.19      
Oct 20 01:53 Calm 10 Clear CLR 53 52     96%     30.19 30.19      
Oct 20 00:53 S 3 10 Clear CLR 52 51     97%     30.19 30.19      
Oct 19 23:53 Calm 10 Clear CLR 53 52     96%     30.2 30.19      
Oct 19 22:53 SSW 3 10 Clear CLR 54 54     100%     30.2 30.2      
Oct 19 21:53 Calm 10 Clear CLR 55 54     96%     30.2 30.19      
Oct 19 20:53 Calm 10 Clear   55 52     89%     30.19 30.19      
Oct 19 19:53 Calm 10 Clear CLR 59 54     83%     30.19 30.18      
Oct 19 18:53 Calm 10 Clear CLR 60 54     80%     30.18 30.17      
Oct 19 17:53 S 3 10 Clear CLR 67 55     66%     30.17 30.17      
Oct 19 16:53 SSE 7 10 Clear CLR 75 51     43%   74 30.17 30.16      
Oct 19 15:53 SE 6 10 Clear CLR 76 51     42%   75 30.18 30.17      
Oct 19 14:53 SSE 5 10 Clear CLR 75 49     40%   74 30.19 30.18      
Oct 19 12:53 5 10 Clear CLR 73 51     46%   72 30.24 30.23      
Oct 19 11:53 S 9 10 Clear CLR 71 51     49%   70 30.26 30.26      
Oct 19 10:53 SSW 6 10 Clear CLR 68 51     55%     30.27 30.27      
Oct 19 09:53 S 8 10 Clear CLR 63 51     65%     30.27 30.27      
Oct 19 08:53 S 5 10 Clear   57 52     83%     30.25 30.25      
Oct 19 07:53 SSE 5 10 Clear CLR 50 49     96% 48   30.24 30.23      
Oct 19 06:53 SSE 3 10 Clear CLR 51 49     92%     30.22 30.22      
Oct 19 05:53 Calm 10 Clear CLR 49 48     97%     30.22 30.21      
Oct 19 04:53 Calm 10 Clear CLR 50 47     89%     30.2 30.19      
Oct 19 03:53 S 6 10 Clear CLR 48 47     96% 45   30.18 30.17      
Oct 19 02:53 S 5 10 Clear CLR 49 47     93% 47   30.19 30.18      
Oct 19 01:53 Calm 10 Clear CLR 51 50     96%     30.18 30.18      
Oct 19 00:53 Calm 10 Clear CLR 51 50     96%     30.18 30.17      
Oct 18 23:53 S 5 10 Clear CLR 53 49     86%     30.18 30.17      
Oct 18 22:53 S 5 10 Clear CLR 54 48     80%     30.18 30.17      
Oct 18 21:53 Calm 10 Clear CLR 53 50     89%     30.18 30.18      
Oct 18 20:53 SSE 5 10 Clear CLR 56 51     84%     30.18 30.17      
Oct 18 19:53 Calm 10 Clear CLR 57 52     83%     30.18 30.18      
Oct 18 18:53 SSE 7 10 Clear   60 49     67%     30.16 30.16      
Oct 18 17:53 SSE 8 10 Clear CLR 68 49     50%     30.17 30.17      
Oct 18 16:53 S 10 10 Clear CLR 73 47     39%   72 30.16 30.16      
Oct 18 15:53 S 10 10 Clear CLR 73 48     41%   72 30.17 30.16      
Oct 18 14:53 S 13 10 Clear CLR 73 48     41%   72 30.18 30.17      
Oct 18 13:53 S 10 10 Clear CLR 73 49     43%   72 30.19 30.19      
Oct 18 12:53 S 11 10 Clear CLR 71 48     44%   70 30.23 30.22      
Oct 18 11:53 S 8 10 Clear CLR 69 49     49%     30.26 30.25      
Oct 18 10:53 SSW 9 10 Clear CLR 67 51     57%     30.27 30.26      
Oct 18 09:53 S 13 10 Clear CLR 63 52     67%     30.27 30.27      
Oct 18 08:53 S 9 10 Clear CLR 57 52     83%     30.26 30.25      
Oct 18 07:53 SSE 3 10 Clear CLR 49 49     100% 48   30.24 30.24      
Oct 18 06:53 SSE 3 10 Clear CLR 48 48     100% 47   30.23 30.23      
Oct 18 05:53 Calm 10 Clear CLR 46 46     100%     30.23 30.23      
Oct 18 04:53 Calm 10 Clear CLR 47 47     100%     30.22 30.21      
Oct 18 03:53 Calm 10 Clear CLR 49 48     97%     30.22 30.21      
Oct 18 02:53 Calm 10 Clear CLR 49 48     97%     30.22 30.21      
Oct 18 01:53 Calm 10 Clear CLR 49 49     100%     30.21 30.2      
Oct 18 00:53 SSE 3 10 Clear CLR 50 49     96% 49   30.21 30.2      
Oct 17 23:53 Calm 10 Clear CLR 49 48     97%     30.22 30.22      
Oct 17 22:53 Calm 10 Clear CLR 50 49     96%     30.23 30.22      
Oct 17 21:53 Calm 10 Clear CLR 49 48     97%     30.22 30.22      
Oct 17 20:53 Calm 10 Clear CLR 51 49     92%     30.22 30.22      
Oct 17 19:53 Calm 10 Clear CLR 55 49     80%     30.22 30.22      
Oct 17 18:53 Calm 10 Clear CLR 57 49     74%     30.2 30.2      
Oct 17 17:53 Calm 10 Clear CLR 62 48     60%     30.2 30.2      
Oct 17 16:53 S 3 10 Clear CLR 69 43     39%     30.2 30.2      
Oct 17 15:53 Calm 10 Clear CLR 69 44     40%     30.22 30.22      
Oct 17 14:53 S 7 10 Clear CLR 69 43     39%     30.23 30.23      
Oct 17 13:53 3 10 Clear CLR 69 42     38%     30.25 30.25      
Oct 17 12:53 Calm 10 Clear CLR 67 43     42%     30.29 30.29      
Oct 17 11:53 3 10 Clear CLR 65 43     45%     30.33 30.32      
Oct 17 10:53 ESE 6 10 Clear CLR 63 43     48%     30.34 30.34      
Oct 17 09:53 ESE 8 10 Clear CLR 59 45     60%     30.35 30.35      
Oct 17 08:53 E 6 10 Clear CLR 53 46     77%     30.35 30.35      
Jun 11 15:53 SSW 15 10 Clear CLR 89 65     45%   91 30.01 30      
Jun 08 23:53 Calm 10 Clear CLR 62 59     90%     29.93 29.92      
Jun 08 22:53 Calm 10 Clear CLR 64 60     87%     29.92 29.91      
Jun 08 18:53 ENE 7 10 Clear CLR 77 51     40%   76 29.9 29.89      
Jun 08 11:53 NNE 11 10 Partly Cloudy SCT050 74 57     56%   74 30 29.99      
Jun 07 14:53 NE 15 10 Clear CLR 82 53     37%   81 29.92 29.91      
Jun 07 10:53 NE 10 10 Clear CLR 78 58     50%   78 29.96 29.94      
Jun 07 08:53 NNE 11 10 Clear CLR 72 60     66%   72 29.96 29.94      
Notice The following observation data may not be complete
Jun 06 07:01   1 Fog/Mist VV002          %              
Jun 06 05:53 NE 5 0.25 Fog VV002 71 71     100%   73 29.79 29.78      
Jun 06 05:30 NE 3 0.75 Fog/Mist VV002 71 71     100%   73 29.79        
Jun 05 13:53 S 7 10 Cloudy BKN023 BKN031 OVC060 79 71     77%   82 29.76 29.75